Location: Newark
(41.6478°N, 9.0078°E)
Time: 22:49:34
(UTC+00:00)

UWE-3 - Pass Details

Date: 26 January 2020
Orbit: 585 x 683 km, 97.6° (Epoch: 20 February)

Event Time Altitude Azimuth Distance (km) Brightness Sun altitude
Rises 05:27:36 0° 5° (N) 2,872 ? -14.0°
Reaches altitude 10° 05:29:49 10° 359° (N) 1,977 ? -13.6°
Maximum altitude 05:33:55 45° 287° (WNW) 855 ? -12.8°
Drops below altitude 10° 05:38:06 10° 215° (SW) 2,020 ? -12.1°
Sets 05:40:23 0° 209° (SSW) 2,941 ? -11.7°
